Location: Newark
(50.4348°N, 30.5552°E)
Time: 09:36:17
(UTC+00:00)

Altair - Visible Passes

Search period start: 18 January 2020 00:00
Search period end: 28 January 2020 00:00
Orbit: 1502 x 1682 km, 47.2° (Epoch: 17 January)

Date Brightness Start Highest point End Pass type
(mag) Time Alt. Az. Time Alt. Az. Time Alt. Az.
18 Jan 9.4 15:00:31 10° W 15:09:00 33° SW 15:17:15 10° SSE visible
20 Jan 10.4 16:18:47 10° WSW 16:21:13 11° WSW 16:23:38 10° SW visible
21 Jan 10.3 15:52:29 10° W 15:56:15 13° WSW 15:59:59 10° SW visible
22 Jan 10.5 05:08:31 10° SSE 05:13:24 15° SE 05:18:19 10° E visible
22 Jan 10.3 15:26:35 10° W 15:31:16 14° SW 15:35:54 10° SSW visible
23 Jan 10.5 04:44:23 10° SSE 04:48:24 13° ESE 04:52:28 10° E visible
23 Jan 10.3 15:00:53 10° W 15:06:17 16° SW 15:11:37 10° SSW visible
24 Jan 10.5 04:20:35 10° SE 04:23:26 11° ESE 04:26:17 10° ESE visible
27 Jan 9.6 05:02:18 10° SSW 05:10:38 31° SE 05:19:04 10° E visible
